Regional Weather Roundup
Issued by NWS

Home | Current Version | Previous Version | Text Only | Print | Product List | Glossary Off
Versions: 1 2 3 4 5 6 7 8 9 10 11 12 13 14 15 16 17 18 19 20 21 22 23 24 25 26 27 28 29 30 31 32 33 34 35 36 37 38 39 40 41 42 43 44 45 46 47 48 49 50

000
ASUS45 KBOU 300510
RWRCO

WEATHER ROUNDUP FOR COLORADO
NATIONAL WEATHER SERVICE DENVER/BOULDER CO
1100 PM MDT THU SEP 29 2016

NOTE: "FAIR" INDICATES FEW OR NO CLOUDS BELOW 12000 FEET WITH NO
SIGNIFICANT WEATHER AND/OR OBSTRUCTIONS TO VISIBILITY.

COZ001>005-013-030-031-300600-
...NORTHWEST COLORADO...

CITY           SKY/WX    TMP DP  RH WIND       PRES   REMARKS
CRAIG          LGT RAIN  54  51  90 CALM      30.38S
HAYDEN         FAIR      54  46  76 CALM      30.39F
MEEKER         CLOUDY    55  52  89 NE3       30.39F
MOUNT WERNER   NOT AVBL
STEAMBOAT SPGS CLOUDY    54  47  78 CALM      30.40F
WALDEN           N/A     50  39  66 SE6       30.46R
$$

COZ006>008-011-300600-
...WEST CENTRAL VALLEYS...

CITY           SKY/WX    TMP DP  RH WIND       PRES   REMARKS
GRAND JUNCTION CLOUDY    60  54  80 E6        30.33F
MONTROSE       CLOUDY    56  52  86 CALM      30.41F
EAGLE          FAIR      54  43  66 E6        30.42S
RIFLE          LGT RAIN  59  54  83 SW3       30.37S
DELTA          NOT AVBL
NUCLA          DRIZZLE   54  54 100 CALM      30.44F
$$

COZ017>023-064>068-300600-
...SOUTHWEST COLORADO...

CITY           SKY/WX    TMP DP  RH WIND       PRES   REMARKS
DURANGO        CLOUDY    53  51  93 CALM      30.44F
CORTEZ         CLOUDY    53  52  96 CALM      30.40F
PAGOSA SPRINGS CLOUDY    52  48  87 CALM      30.49F
TELLURIDE      CLOUDY    48  43  80 CALM      30.54F
WOLF CREEK PAS CLOUDY    34  34 100 MISG      30.71F
$$

COZ009-010-012-014-032>034-037-058>063-300600-
...CENTRAL COLORADO...

CITY           SKY/WX    TMP DP  RH WIND       PRES   REMARKS
ASPEN          FAIR      51  43  74 S3        30.46S
BUENA VISTA    FAIR      55  32  41 CALM      30.44S
COPPER MTN     FAIR      45  32  61 CALM      30.68F
BERTHOUD PASS  FAIR      37  25  60 N12G18    30.70F
COTTONWOOD PAS MOCLDY    55  32  41 SW15G22   30.55F
GUNNISON       FAIR      54  45  71 N6        30.45F
KREMMLING      FAIR      50  34  53 E3        30.43S
LEADVILLE      MOCLDY    43  28  55 NE5       30.54F
MONARCH PASS   FAIR      39  34  81 W23       30.77R
SALIDA         MOCLDY    63  37  37 W12       30.48F
SUNLIGHT       LGT RAIN  45  43  93 SW5       30.64S
WILKERSON PASS FAIR      45  23  42 SW7       30.66F
$$

COZ069>075-300600-
...SAN LUIS VALLEY/SANGRE DE CRISTO MOUNTAINS...

CITY           SKY/WX    TMP DP  RH WIND       PRES   REMARKS
ALAMOSA        FAIR      46  36  68 NE5       30.43S
LA VETA PASS   FAIR      48  32  53 MISG      30.56F
SAGUACHE       FAIR      54  36  50 N7        30.44F
$$

COZ035-036-038>040-300600-
...NORTHERN COLORADO FRONT RANGE...

CITY           SKY/WX    TMP DP  RH WIND       PRES   REMARKS
DENVER INTL AP FAIR      64  37  36 SW12      30.24S
DMNS CITY PARK   N/A     58  45  61 NW2       30.24R
AURORA         PTCLDY    64  39  39 S14       30.25F
FRONT RANGE AP NOT AVBL
ERIE MUNI ARPT FAIR      53  39  59 CALM      30.23S
BOULDER MUN AP FAIR      59  43  55 CALM      30.24R
CENTENNIAL     FAIR      64  37  36 S10       30.27F
BROOMFIELD     NOT AVBL
FORT COLLINS   FAIR      63  41  45 N9        30.22S
LONGMONT       FAIR      55  41  60 W3        30.25S
$$

COZ041-046-047-076>085-087-088-300600-
...PIKES PEAK/PALMER DIVIDE AND SOUTHERN FOOTHILLS...

CITY           SKY/WX    TMP DP  RH WIND       PRES   REMARKS
COLO. SPRINGS  FAIR      58  38  47 NE6       30.33F
A. F. ACADEMY  FAIR      57  38  48 NE3       30.34S
SCHRIEVER AFB  NOT AVBL
ELLICOTT       NOT AVBL
FALCON         FAIR      53  38  57 N5        30.37F
FORT CARSON    FAIR      56  37  50 NW7       30.29F
LIMON          FAIR      52  41  66 SE9       30.30F
MONUMENT HILL  FAIR      52  37  58 S10       30.37F
TRINIDAD       FAIR      60  31  33 CALM      30.29F
$$

COZ042>045-048>051-090-091-300600-
...NORTHEAST COLORADO...

CITY           SKY/WX    TMP DP  RH WIND       PRES   REMARKS
GREELEY ARPT   FAIR      61  39  44 S3        30.21S
AKRON          FAIR      53  40  61 SE12      30.26F
BURLINGTON     FAIR      55  40  56 SE15      30.29F
WRAY           FAIR      54  37  54 E9        30.29S
STERLING       FAIR      61  43  51 SE13      30.23S
HOLYOKE        FAIR      54  41  62 SE8       30.29S
FORT MORGAN    FAIR      59  40  50 SE9G16    30.24S
$$

COZ086-089-092>099-300600-
...SOUTHEAST COLORADO...

CITY           SKY/WX    TMP DP  RH WIND       PRES   REMARKS
PUEBLO         FAIR      62  32  32 E3        30.20F
LA JUNTA       FAIR      65  42  43 S9        30.22F
LAMAR          FAIR      61  43  51 SE13      30.24R
SPRINGFIELD      N/A     54  44  69 S15       30.30F
$$



USA.gov is the U.S. government's official web portal to all federal, state and local government web resources and services.